"read_dt","SO2 (ppb)","flags","PMT voltage (V)","lamp voltage (V)","lamp intensity (Hz)","internal temp (C)","react chamber temp (C)","sample flow (l/min)","pres (mmHg)","SO2 bkg (ppb)","SO2 coefficient"
2018-09-12 00:00:00,-2.847E-01,4C000000*,-703.0,965.809,90,21.0,44.7,0.408,742.0,2.2,1.050*
2018-09-12 00:01:00,-2.865E-01,4C000000*,-703.4,964.192,90,21.0,44.8,0.408,742.0,2.2,1.050*
2018-09-12 00:02:00,-3.131E-01,4C000000*,-703.0,964.597,91,21.0,44.9,0.408,742.3,2.2,1.050*
2018-09-12 00:03:00,-3.502E-01,4C000000*,-703.0,965.405,89,21.0,45.1,0.408,742.0,2.2,1.050*
2018-09-12 00:04:00,-2.548E-01,4C000000*,-703.0,966.214,89,21.0,44.8,0.408,742.0,2.2,1.050*
2018-09-12 00:05:00,-2.269E-01,4C000000*,-703.0,967.022,89,21.1,44.9,0.408,742.0,2.2,1.050*
2018-09-12 00:06:00,-3.202E-01,4C000000*,-703.4,965.405,89,21.1,45.0,0.408,742.0,2.2,1.050*
2018-09-12 00:07:00,-2.592E-01,4C000000*,-703.0,963.384,90,21.1,45.0,0.407,742.0,2.2,1.050*
2018-09-12 00:08:00,-3.168E-01,4C000000*,-703.0,964.192,90,21.0,44.6,0.408,742.0,2.2,1.050*
2018-09-12 00:09:00,-3.009E-01,4C000000*,-703.0,966.214,89,21.0,44.7,0.408,742.0,2.2,1.050*
2018-09-12 00:10:00,-3.163E-01,4C000000*,-703.0,964.192,89,20.9,44.9,0.408,742.0,2.2,1.050*
2018-09-12 00:11:00,-3.217E-01,4C000000*,-703.4,963.788,90,21.0,44.9,0.408,742.0,2.2,1.050*
2018-09-12 00:12:00,-3.680E-01,4C000000*,-703.0,967.022,88,20.9,45.0,0.408,742.0,2.2,1.050*
2018-09-12 00:13:00,-3.084E-01,4C000000*,-703.0,965.809,90,21.0,44.7,0.408,742.0,2.2,1.050*
2018-09-12 00:14:00,-3.387E-01,4C000000*,-703.0,964.192,90,21.0,44.8,0.408,742.3,2.2,1.050*
2018-09-12 00:15:00,-2.889E-01,4C000000*,-703.0,966.214,90,21.1,44.9,0.408,742.0,2.2,1.050*
2018-09-12 00:16:00,-2.748E-01,4C000000*,-703.4,964.597,90,21.1,45.0,0.408,742.0,2.2,1.050*
2018-09-12 00:17:00,-2.492E-01,4C000000*,-702.6,965.809,92,21.1,44.8,0.408,742.0,2.2,1.050*
2018-09-12 00:18:00,-3.430E-01,4C000000*,-702.6,965.809,90,21.1,44.9,0.408,742.0,2.2,1.050*
2018-09-12 00:19:00,-2.666E-01,4C000000*,-703.0,966.214,88,21.1,45.1,0.408,742.0,2.2,1.050*
2018-09-12 00:20:00,-2.757E-01,4C000000*,-703.0,964.597,89,21.1,44.8,0.408,742.0,2.2,1.050*
2018-09-12 00:21:00,-2.823E-01,4C000000*,-703.0,965.001,89,21.1,44.9,0.408,742.0,2.2,1.050*
2018-09-12 00:22:00,-2.783E-01,4C000000*,-703.0,965.809,89,21.0,44.9,0.408,742.0,2.2,1.050*
2018-09-12 00:23:00,-2.093E-01,4C000000*,-703.4,964.192,90,21.1,45.1,0.408,742.0,2.2,1.050*
2018-09-12 00:24:00,-2.014E-01,4C000000*,-703.0,967.427,88,21.1,44.7,0.408,742.0,2.2,1.050*
2018-09-12 00:25:00,-2.381E-01,4C000000*,-703.0,966.214,90,21.2,44.8,0.408,742.0,2.2,1.050*
2018-09-12 00:26:00,-2.344E-01,4C000000*,-703.4,965.809,90,21.1,44.9,0.408,742.0,2.2,1.050*
2018-09-12 00:27:00,-2.689E-01,4C000000*,-703.0,965.809,90,21.2,45.0,0.408,742.3,2.2,1.050*
2018-09-12 00:28:00,-2.176E-01,4C000000*,-703.0,966.214,91,21.2,45.1,0.408,742.0,2.2,1.050*
2018-09-12 00:29:00,-3.359E-01,4C000000*,-703.0,966.214,91,21.2,44.8,0.408,742.0,2.2,1.050*
2018-09-12 00:30:00,-2.757E-01,4C000000*,-703.4,965.405,90,21.2,44.8,0.408,742.0,2.2,1.050*
2018-09-12 00:31:00,-2.803E-01,4C000000*,-703.0,964.597,90,21.1,45.0,0.408,742.0,2.2,1.050*
2018-09-12 00:32:00,-2.987E-01,4C000000*,-703.4,966.214,91,21.2,44.9,0.408,742.0,2.2,1.050*
2018-09-12 00:33:00,-3.247E-01,4C000000*,-703.4,965.809,90,21.2,44.8,0.408,742.0,2.2,1.050*
2018-09-12 00:34:00,-3.061E-01,4C000000*,-703.4,966.618,90,21.2,44.8,0.408,742.3,2.2,1.050*
2018-09-12 00:35:00,-2.703E-01,4C000000*,-703.7,966.618,90,21.2,45.0,0.408,742.0,2.2,1.050*
2018-09-12 00:36:00,-2.691E-01,4C000000*,-703.4,964.597,90,21.1,44.9,0.408,742.0,2.2,1.050*
2018-09-12 00:37:00,-3.189E-01,4C000000*,-702.6,966.214,90,21.1,44.8,0.408,742.0,2.2,1.050*
2018-09-12 00:38:00,-2.529E-01,4C000000*,-702.6,966.214,90,21.2,44.8,0.408,742.0,2.2,1.050*
2018-09-12 00:39:00,-2.516E-01,4C000000*,-702.6,964.597,91,21.2,44.9,0.407,742.0,2.2,1.050*
2018-09-12 00:40:00,-3.712E-01,4C000000*,-703.0,965.809,91,21.2,45.1,0.408,742.0,2.2,1.050*
2018-09-12 00:41:00,-2.938E-01,4C000000*,-703.0,965.809,91,21.3,44.7,0.408,742.0,2.2,1.050*
2018-09-12 00:42:00,-2.299E-01,4C000000*,-703.0,965.405,90,21.3,44.7,0.408,742.3,2.2,1.050*
2018-09-12 00:43:00,-3.176E-01,4C000000*,-703.0,966.618,91,21.2,44.8,0.408,742.0,2.2,1.050*
2018-09-12 00:44:00,-1.939E-01,4C000000*,-703.0,965.809,91,21.2,45.0,0.408,742.0,2.2,1.050*
2018-09-12 00:45:00,-1.802E-01,4C000000*,-703.7,963.788,90,21.3,45.0,0.408,742.0,2.2,1.050*
2018-09-12 00:46:00,-2.724E-01,4C000000*,-703.0,966.214,90,21.2,44.7,0.408,742.0,2.2,1.050*
2018-09-12 00:47:00,-2.034E-01,4C000000*,-703.0,965.001,89,21.3,44.8,0.408,742.0,2.2,1.050*
2018-09-12 00:48:00,-2.444E-01,4C000000*,-703.0,964.192,90,21.2,44.9,0.408,742.0,2.2,1.050*
2018-09-12 00:49:00,-2.081E-01,4C000000*,-703.0,964.597,92,21.3,45.0,0.408,742.0,2.2,1.050*
2018-09-12 00:50:00,-2.645E-01,4C000000*,-703.0,965.001,89,21.2,44.8,0.408,742.0,2.2,1.050*
2018-09-12 00:51:00,-2.286E-01,4C000000*,-703.0,965.809,91,21.3,44.7,0.408,742.0,2.2,1.050*
2018-09-12 00:52:00,-3.794E-01,4C000000*,-703.7,964.192,90,21.3,44.8,0.408,742.0,2.2,1.050*
2018-09-12 00:53:00,-3.129E-01,4C000000*,-703.0,964.597,90,21.3,45.0,0.409,742.3,2.2,1.050*
2018-09-12 00:54:00,-2.955E-01,4C000000*,-703.4,965.405,91,21.3,45.0,0.408,742.0,2.2,1.050*
2018-09-12 00:55:00,-3.055E-01,4C000000*,-703.0,964.597,89,21.3,44.8,0.408,742.0,2.2,1.050*
2018-09-12 00:56:00,-2.319E-01,4C000000*,-703.0,963.788,91,21.3,45.0,0.408,742.3,2.2,1.050*
2018-09-12 00:57:00,-2.321E-01,4C000000*,-703.0,965.001,88,21.3,45.1,0.408,742.0,2.2,1.050*
2018-09-12 00:58:00,-2.752E-01,4C000000*,-703.4,963.788,90,21.3,44.7,0.408,742.0,2.2,1.050*
2018-09-12 00:59:00,-3.120E-01,4C000000*,-703.0,965.809,89,21.3,44.8,0.408,742.3,2.2,1.050*
2018-09-12 01:00:00,-2.636E-01,4C000000*,-703.0,967.022,88,21.4,44.8,0.408,742.3,2.2,1.050*
2018-09-12 01:01:00,-2.444E-01,4C000000*,-703.0,965.001,91,21.3,45.0,0.408,742.3,2.2,1.050*
2018-09-12 01:02:00,-2.963E-01,4C000000*,-703.0,966.214,90,21.3,45.1,0.408,742.0,2.2,1.050*
2018-09-12 01:03:00,-2.063E-01,4C000000*,-703.0,965.405,91,21.3,44.8,0.408,742.0,2.2,1.050*
2018-09-12 01:04:00,-2.089E-01,4C000000*,-703.0,966.214,90,21.3,44.9,0.409,742.0,2.2,1.050*
2018-09-12 01:05:00,-1.908E-01,4C000000*,-703.0,967.022,90,21.4,45.0,0.409,742.0,2.2,1.050*
2018-09-12 01:06:00,-3.010E-01,4C000000*,-703.4,965.405,90,21.4,44.9,0.408,742.0,2.2,1.050*
2018-09-12 01:07:00,-2.163E-01,4C000000*,-703.4,965.809,91,21.3,44.8,0.408,742.0,2.2,1.050*
2018-09-12 01:08:00,-2.436E-01,4C000000*,-703.4,965.405,90,21.4,44.9,0.408,742.0,2.2,1.050*
2018-09-12 01:09:00,-1.812E-01,4C000000*,-703.0,964.597,90,21.4,45.0,0.408,742.3,2.2,1.050*
2018-09-12 01:10:00,-3.766E-01,4C000000*,-703.4,964.192,89,21.4,44.8,0.408,742.0,2.2,1.050*
2018-09-12 01:11:00,-2.845E-01,4C000000*,-703.0,963.788,89,21.4,44.9,0.408,742.0,2.2,1.050*
2018-09-12 01:12:00,-1.892E-01,4C000000*,-703.7,967.022,88,21.4,45.0,0.408,742.0,2.2,1.050*
2018-09-12 01:13:00,-2.847E-01,4C000000*,-703.0,965.405,89,21.4,45.1,0.408,742.0,2.2,1.050*
2018-09-12 01:14:00,-3.251E-01,4C000000*,-703.0,965.001,90,21.4,44.8,0.408,742.0,2.2,1.050*
2018-09-12 01:15:00,-3.208E-01,4C000000*,-703.0,966.618,90,21.3,44.9,0.408,742.3,2.2,1.050*
2018-09-12 01:16:00,-1.885E-01,4C000000*,-703.0,965.405,90,21.5,45.0,0.408,742.0,2.2,1.050*
2018-09-12 01:17:00,-2.211E-01,4C000000*,-703.0,965.001,90,21.4,44.9,0.408,742.0,2.2,1.050*
2018-09-12 01:18:00,-2.207E-01,4C000000*,-703.0,965.405,90,21.4,44.6,0.408,742.3,2.2,1.050*
2018-09-12 01:19:00,-3.204E-01,4C000000*,-703.0,965.001,89,21.4,44.8,0.408,742.0,2.2,1.050*
2018-09-12 01:20:00,-2.915E-01,4C000000*,-703.4,965.405,90,21.4,44.9,0.408,742.3,2.2,1.050*
2018-09-12 01:21:00,-2.004E-01,4C000000*,-703.4,965.809,91,21.5,45.0,0.408,742.0,2.2,1.050*
2018-09-12 01:22:00,-2.333E-01,4C000000*,-703.0,964.192,90,21.5,44.9,0.409,742.0,2.2,1.050*
2018-09-12 01:23:00,-3.189E-01,4C000000*,-703.4,964.192,90,21.5,44.8,0.408,742.3,2.2,1.050*
2018-09-12 01:24:00,-3.406E-01,4C000000*,-703.4,965.405,91,21.5,45.0,0.408,742.3,2.2,1.050*
2018-09-12 01:25:00,-3.408E-01,4C000000*,-703.4,965.405,91,21.5,45.1,0.408,742.3,2.2,1.050*
2018-09-12 01:26:00,-2.674E-01,4C000000*,-703.4,964.597,90,21.5,44.8,0.408,742.0,2.2,1.050*
2018-09-12 01:27:00,-2.849E-01,4C000000*,-703.0,964.597,87,21.5,44.8,0.408,742.3,2.2,1.050*
2018-09-12 01:28:00,-2.546E-01,4C000000*,-703.0,962.575,92,21.5,45.0,0.409,742.3,2.2,1.050*
2018-09-12 01:29:00,-2.550E-01,4C000000*,-703.0,963.384,88,21.6,45.1,0.408,742.3,2.2,1.050*
2018-09-12 01:30:00,-2.739E-01,4C000000*,-703.0,964.192,91,21.5,44.8,0.408,742.0,2.2,1.050*
2018-09-12 01:31:00,-2.783E-01,4C000000*,-703.0,965.405,90,21.5,44.8,0.408,742.3,2.2,1.050*
2018-09-12 01:32:00,-2.534E-01,4C000000*,-703.4,965.405,89,21.5,44.9,0.408,742.3,2.2,1.050*
2018-09-12 01:33:00,-2.278E-01,4C000000*,-703.4,964.597,90,21.6,45.1,0.409,742.0,2.2,1.050*
2018-09-12 01:34:00,-3.063E-01,4C000000*,-703.0,965.001,89,21.5,44.8,0.409,742.3,2.2,1.050*
2018-09-12 01:35:00,-3.125E-01,4C000000*,-703.4,965.809,90,21.5,44.9,0.408,742.3,2.2,1.050*
2018-09-12 01:36:00,-3.002E-01,4C000000*,-703.4,964.597,89,21.6,45.1,0.408,742.3,2.2,1.050*
2018-09-12 01:37:00,-2.575E-01,4C000000*,-703.0,965.001,89,21.6,44.8,0.408,742.0,2.2,1.050*
2018-09-12 01:38:00,-3.207E-01,4C000000*,-703.0,966.214,90,21.6,44.7,0.408,742.3,2.2,1.050*
2018-09-12 01:39:00,-2.444E-01,4C000000*,-703.4,965.405,90,21.5,44.9,0.408,742.0,2.2,1.050*
2018-09-12 01:40:00,-2.181E-01,4C000000*,-703.0,965.405,90,21.5,45.0,0.408,742.0,2.2,1.050*
2018-09-12 01:41:00,-3.702E-01,4C000000*,-702.6,965.405,89,21.6,45.0,0.408,742.0,2.2,1.050*
2018-09-12 01:42:00,-2.655E-01,4C000000*,-703.0,964.192,91,21.6,44.6,0.408,742.0,2.2,1.050*
2018-09-12 01:43:00,-2.409E-01,4C000000*,-703.4,964.192,90,21.6,44.7,0.408,742.0,2.2,1.050*
2018-09-12 01:44:00,-2.417E-01,4C000000*,-703.4,963.384,90,21.6,44.8,0.408,742.3,2.2,1.050*
2018-09-12 01:45:00,-2.616E-01,4C000000*,-703.4,964.597,90,21.6,45.0,0.408,742.0,2.2,1.050*
2018-09-12 01:46:00,-2.317E-01,4C000000*,-703.0,965.001,90,21.6,45.0,0.408,742.0,2.2,1.050*
2018-09-12 01:47:00,-2.683E-01,4C000000*,-703.0,966.618,90,21.6,44.8,0.408,742.0,2.2,1.050*
2018-09-12 01:48:00,-2.275E-01,4C000000*,-703.0,963.788,91,21.6,44.9,0.408,742.0,2.2,1.050*
2018-09-12 01:49:00,-2.111E-01,4C000000*,-703.0,966.214,89,21.7,45.1,0.408,742.0,2.2,1.050*
2018-09-12 01:50:00,-3.189E-01,4C000000*,-703.0,966.214,90,21.6,44.7,0.408,742.0,2.2,1.050*
2018-09-12 01:51:00,-2.801E-01,4C000000*,-703.0,964.597,90,21.7,44.7,0.408,742.0,2.2,1.050*
2018-09-12 01:52:00,-2.274E-01,4C000000*,-703.0,965.809,90,21.6,44.8,0.408,742.0,2.2,1.050*
2018-09-12 01:53:00,-2.777E-01,4C000000*,-703.0,963.384,91,21.6,45.0,0.408,742.0,2.2,1.050*
2018-09-12 01:54:00,-2.460E-01,4C000000*,-703.4,965.405,91,21.7,45.1,0.408,742.0,2.2,1.050*
2018-09-12 01:55:00,-1.923E-01,4C000000*,-703.4,966.618,90,21.7,44.7,0.408,742.0,2.2,1.050*
2018-09-12 01:56:00,-2.365E-01,4C000000*,-703.0,965.809,90,21.7,44.8,0.408,742.0,2.2,1.050*
2018-09-12 01:57:00,-3.328E-01,4C000000*,-703.0,964.597,88,21.7,45.0,0.408,742.0,2.2,1.050*
2018-09-12 01:58:00,-3.838E-01,4C000000*,-703.0,964.597,89,21.6,45.0,0.408,742.0,2.2,1.050*
2018-09-12 01:59:00,-2.098E-01,4C000000*,-703.0,964.192,91,21.7,44.8,0.408,742.0,2.2,1.050*
2018-09-12 02:00:00,-2.781E-01,4C000000*,-703.4,963.788,89,21.7,44.9,0.408,742.0,2.2,1.050*
2018-09-12 02:01:00,-2.709E-01,4C000000*,-703.0,963.788,90,21.7,45.0,0.408,742.0,2.2,1.050*
2018-09-12 02:02:00,-3.226E-01,4C000000*,-703.0,965.405,90,21.7,45.0,0.408,742.0,2.2,1.050*
2018-09-12 02:03:00,-2.070E-01,4C000000*,-702.6,963.788,90,21.7,44.8,0.408,742.3,2.2,1.050*
2018-09-12 02:04:00,-3.013E-01,4C000000*,-702.6,965.001,90,21.6,44.9,0.408,742.0,2.2,1.050*
2018-09-12 02:05:00,-2.761E-01,4C000000*,-703.0,964.192,89,21.7,45.1,0.409,742.0,2.2,1.050*
2018-09-12 02:06:00,-3.620E-01,4C000000*,-703.0,966.214,91,21.7,44.8,0.408,742.0,2.2,1.050*
2018-09-12 02:07:00,-2.067E-01,4C000000*,-703.4,965.001,89,21.7,44.8,0.408,742.0,2.2,1.050*
2018-09-12 02:08:00,-2.214E-01,4C000000*,-703.4,965.001,89,21.7,44.9,0.408,742.0,2.2,1.050*
2018-09-12 02:09:00,-3.203E-01,4C000000*,-703.0,964.597,89,21.8,45.0,0.408,742.0,2.2,1.050*
2018-09-12 02:10:00,-2.703E-01,4C000000*,-703.0,965.405,90,21.8,44.8,0.408,742.0,2.2,1.050*
2018-09-12 02:11:00,-2.363E-01,4C000000*,-703.0,965.001,90,21.9,44.9,0.408,742.0,2.2,1.050*
2018-09-12 02:12:00,-2.973E-01,4C000000*,-703.0,965.405,89,21.8,45.0,0.408,742.0,2.2,1.050*
2018-09-12 02:13:00,-2.797E-01,4C000000*,-703.4,965.001,90,21.8,45.0,0.408,742.0,2.2,1.050*
2018-09-12 02:14:00,-3.109E-01,4C000000*,-703.0,964.597,90,21.8,44.8,0.408,742.0,2.2,1.050*
2018-09-12 02:15:00,-2.928E-01,4C000000*,-703.0,965.001,90,21.8,44.9,0.408,742.0,2.2,1.050*
2018-09-12 02:16:00,-2.783E-01,4C000000*,-703.0,965.405,89,21.8,45.0,0.408,742.0,2.2,1.050*
2018-09-12 02:17:00,-2.380E-01,4C000000*,-703.0,965.001,90,21.8,45.0,0.408,742.0,2.2,1.050*
2018-09-12 02:18:00,-2.447E-01,4C000000*,-703.0,965.405,90,21.9,44.7,0.408,742.0,2.2,1.050*
2018-09-12 02:19:00,-3.567E-01,4C000000*,-703.0,965.405,90,21.9,44.8,0.408,742.0,2.2,1.050*
2018-09-12 02:20:00,-2.502E-01,4C000000*,-702.6,966.214,90,21.8,45.0,0.408,742.0,2.2,1.050*
2018-09-12 02:21:00,-3.162E-01,4C000000*,-703.0,965.809,90,21.9,45.2,0.408,742.0,2.2,1.050*
2018-09-12 02:22:00,-2.648E-01,4C000000*,-703.0,964.192,90,21.8,44.7,0.408,742.0,2.2,1.050*
2018-09-12 02:23:00,-2.688E-01,4C000000*,-703.0,966.214,90,21.8,44.7,0.408,742.0,2.2,1.050*
2018-09-12 02:24:00,-2.988E-01,4C000000*,-703.4,964.597,91,21.9,44.8,0.408,742.0,2.2,1.050*
2018-09-12 02:25:00,-3.061E-01,4C000000*,-703.0,965.809,90,21.9,45.0,0.408,742.0,2.2,1.050*
2018-09-12 02:26:00,-2.958E-01,4C000000*,-702.6,965.809,91,21.9,45.0,0.408,742.0,2.2,1.050*
2018-09-12 02:27:00,-2.584E-01,4C000000*,-702.6,965.405,90,21.9,44.7,0.408,742.0,2.2,1.050*
2018-09-12 02:28:00,-2.212E-01,4C000000*,-702.6,965.001,90,21.9,44.8,0.408,742.0,2.2,1.050*
2018-09-12 02:29:00,-3.225E-01,4C000000*,-702.6,965.809,90,21.9,45.0,0.408,742.0,2.2,1.050*
2018-09-12 02:30:00,-2.430E-01,4C000000*,-703.4,965.001,91,21.9,45.0,0.408,741.7,2.2,1.050*
2018-09-12 02:31:00,-2.525E-01,4C000000*,-703.4,966.214,91,21.9,44.8,0.408,742.0,2.2,1.050*
2018-09-12 02:32:00,-3.174E-01,4C000000*,-703.0,966.618,89,21.9,45.0,0.408,742.0,2.2,1.050*
2018-09-12 02:33:00,-3.019E-01,4C000000*,-703.0,965.809,90,22.0,45.0,0.408,742.0,2.2,1.050*
2018-09-12 02:34:00,-2.283E-01,4C000000*,-703.0,964.597,90,21.9,44.8,0.408,742.0,2.2,1.050*
2018-09-12 02:35:00,-2.614E-01,4C000000*,-703.4,965.405,90,22.0,44.9,0.408,742.0,2.2,1.050*
2018-09-12 02:36:00,-2.893E-01,4C000000*,-703.0,965.405,90,22.0,45.0,0.408,742.0,2.2,1.050*
2018-09-12 02:37:00,-2.494E-01,4C000000*,-703.0,964.597,90,22.0,44.7,0.408,742.0,2.2,1.050*
2018-09-12 02:38:00,-2.004E-01,4C000000*,-703.0,964.597,90,22.0,44.7,0.408,742.0,2.2,1.050*
2018-09-12 02:39:00,-2.099E-01,4C000000*,-703.4,965.405,91,21.9,44.9,0.408,742.0,2.2,1.050*
2018-09-12 02:40:00,-2.756E-01,4C000000*,-703.0,964.597,90,22.0,45.1,0.408,742.0,2.2,1.050*
2018-09-12 02:41:00,-2.887E-01,4C000000*,-702.6,965.809,89,22.0,45.0,0.408,741.7,2.2,1.050*
2018-09-12 02:42:00,-2.639E-01,4C000000*,-703.0,966.214,89,22.0,44.8,0.409,742.0,2.2,1.050*
2018-09-12 02:43:00,-2.297E-01,4C000000*,-703.0,964.192,89,22.0,44.9,0.408,742.0,2.2,1.050*
2018-09-12 02:44:00,-2.673E-01,4C000000*,-703.0,965.001,90,22.1,45.1,0.408,742.0,2.2,1.050*
2018-09-12 02:45:00,-2.200E-01,4C000000*,-702.6,965.405,90,22.1,44.8,0.408,742.0,2.2,1.050*
2018-09-12 02:46:00,-2.546E-01,4C000000*,-703.0,965.405,91,22.0,44.9,0.408,742.0,2.2,1.050*
2018-09-12 02:47:00,-3.456E-01,4C000000*,-703.0,965.405,90,22.0,45.0,0.408,742.0,2.2,1.050*
2018-09-12 02:48:00,-2.863E-01,4C000000*,-703.0,965.001,90,22.0,45.0,0.408,742.0,2.2,1.050*
2018-09-12 02:49:00,-2.113E-01,4C000000*,-703.0,966.214,90,22.1,44.7,0.408,742.3,2.2,1.050*
2018-09-12 02:50:00,-2.192E-01,4C000000*,-703.4,965.809,89,22.1,44.8,0.408,742.0,2.2,1.050*
2018-09-12 02:51:00,-3.585E-01,4C000000*,-703.0,965.001,88,22.1,44.9,0.408,742.0,2.2,1.050*
2018-09-12 02:52:00,-2.992E-01,4C000000*,-703.0,966.618,90,22.1,45.1,0.408,742.0,2.2,1.050*
2018-09-12 02:53:00,-2.810E-01,4C000000*,-703.4,965.001,90,22.0,44.7,0.408,742.0,2.2,1.050*
2018-09-12 02:54:00,-2.720E-01,4C000000*,-703.4,964.192,89,22.1,44.7,0.408,742.0,2.2,1.050*
2018-09-12 02:55:00,-2.872E-01,4C000000*,-703.0,964.192,90,22.1,44.8,0.408,742.0,2.2,1.050*
2018-09-12 02:56:00,-2.208E-01,4C000000*,-702.6,964.597,90,22.1,45.0,0.408,742.0,2.2,1.050*
2018-09-12 02:57:00,-2.490E-01,4C000000*,-703.0,964.597,90,22.1,45.0,0.408,742.0,2.2,1.050*
2018-09-12 02:58:00,-3.100E-01,4C000000*,-703.4,965.809,90,22.1,44.7,0.408,742.0,2.2,1.050*
2018-09-12 02:59:00,-3.079E-01,4C000000*,-703.4,965.405,88,22.1,44.8,0.408,742.0,2.2,1.050*
2018-09-12 03:00:00,-1.945E-01,4C000000*,-703.0,964.192,90,22.2,44.9,0.408,742.0,2.2,1.050*
2018-09-12 03:01:00,-2.753E-01,4C000000*,-703.0,965.809,91,22.1,45.1,0.408,742.0,2.2,1.050*
2018-09-12 03:02:00,-2.494E-01,4C000000*,-703.0,964.192,89,22.1,44.8,0.408,742.0,2.2,1.050*
2018-09-12 03:03:00,-1.484E-01,4C000000*,-703.0,965.405,91,22.2,44.9,0.408,742.0,2.2,1.050*
2018-09-12 03:04:00,-4.336E-01,4C000000*,-703.0,965.809,90,22.3,45.1,0.408,742.0,2.2,1.050*
2018-09-12 03:05:00,-1.881E-01,4C000000*,-703.0,965.405,92,22.2,44.9,0.408,742.0,2.2,1.050*
2018-09-12 03:06:00,-3.485E-01,4C000000*,-703.0,966.214,89,22.2,44.7,0.409,742.0,2.2,1.050*
2018-09-12 03:07:00,-3.393E-01,4C000000*,-703.0,965.405,91,22.2,44.8,0.408,742.0,2.2,1.050*
2018-09-12 03:08:00,-3.289E-01,4C000000*,-703.0,963.788,90,22.2,45.0,0.408,742.0,2.2,1.050*
2018-09-12 03:09:00,-2.942E-01,4C000000*,-702.6,963.788,89,22.2,45.1,0.408,742.0,2.2,1.050*
2018-09-12 03:10:00,-3.684E-01,4C000000*,-703.0,965.809,89,22.2,44.7,0.408,742.0,2.2,1.050*
2018-09-12 03:11:00,-3.018E-01,4C000000*,-703.0,965.809,89,22.2,44.8,0.408,742.0,2.2,1.050*
2018-09-12 03:12:00,-2.776E-01,4C000000*,-702.6,965.405,90,22.2,44.9,0.408,741.7,2.2,1.050*
2018-09-12 03:13:00,-2.474E-01,4C000000*,-703.0,964.597,87,22.3,45.0,0.408,742.0,2.2,1.050*
2018-09-12 03:14:00,-3.370E-01,4C000000*,-703.0,964.192,90,22.2,44.8,0.408,741.7,2.2,1.050*
2018-09-12 03:15:00,-2.106E-01,4C000000*,-703.0,965.001,90,22.2,44.9,0.408,742.0,2.2,1.050*
2018-09-12 03:16:00,-2.173E-01,4C000000*,-703.0,963.788,89,22.2,45.1,0.408,742.0,2.2,1.050*
2018-09-12 03:17:00,-3.003E-01,4C000000*,-703.4,963.788,91,22.2,44.7,0.408,742.0,2.2,1.050*
2018-09-12 03:18:00,-2.953E-01,4C000000*,-703.0,965.405,91,22.2,44.8,0.408,742.0,2.2,1.050*
2018-09-12 03:19:00,-2.315E-01,4C000000*,-703.0,964.597,90,22.3,44.9,0.408,742.0,2.2,1.050*
2018-09-12 03:20:00,-2.893E-01,4C000000*,-703.4,964.597,90,22.2,45.1,0.408,742.0,2.2,1.050*
2018-09-12 03:21:00,-2.541E-01,4C000000*,-702.6,965.001,89,22.1,44.7,0.408,742.0,2.2,1.050*
2018-09-12 03:22:00,-2.612E-01,4C000000*,-703.0,964.597,90,22.2,44.8,0.408,742.0,2.2,1.050*
2018-09-12 03:23:00,-3.311E-01,4C000000*,-703.0,965.405,90,22.2,44.9,0.408,742.0,2.2,1.050*
2018-09-12 03:24:00,-3.199E-01,4C000000*,-703.0,965.405,89,22.2,45.0,0.408,742.0,2.2,1.050*
2018-09-12 03:25:00,-2.877E-01,4C000000*,-702.6,964.597,90,22.3,44.8,0.409,742.0,2.2,1.050*
2018-09-12 03:26:00,-2.735E-01,4C000000*,-703.0,964.597,89,22.2,44.8,0.408,741.7,2.2,1.050*
2018-09-12 03:27:00,-2.898E-01,4C000000*,-703.0,965.001,90,22.2,44.9,0.408,742.0,2.2,1.050*
2018-09-12 03:28:00,-2.577E-01,4C000000*,-703.0,965.001,90,22.3,45.1,0.409,742.0,2.2,1.050*
2018-09-12 03:29:00,-2.694E-01,4C000000*,-703.0,965.405,91,22.2,44.8,0.408,742.0,2.2,1.050*
2018-09-12 03:30:00,-2.950E-01,4C000000*,-703.0,965.809,91,22.4,44.8,0.408,742.0,2.2,1.050*
2018-09-12 03:31:00,-2.568E-01,4C000000*,-703.0,965.809,90,22.2,45.0,0.409,742.0,2.2,1.050*
2018-09-12 03:32:00,-3.067E-01,4C000000*,-703.0,965.809,91,22.3,45.1,0.408,742.0,2.2,1.050*
2018-09-12 03:33:00,-3.629E-01,4C000000*,-703.0,966.214,90,22.3,44.7,0.409,742.0,2.2,1.050*
2018-09-12 03:34:00,-2.863E-01,4C000000*,-703.4,963.788,88,22.3,44.9,0.408,742.0,2.2,1.050*
2018-09-12 03:35:00,-2.162E-01,4C000000*,-703.0,966.214,89,22.3,45.0,0.408,742.0,2.2,1.050*
2018-09-12 03:36:00,-3.376E-01,4C000000*,-703.0,964.192,89,22.3,45.0,0.408,742.0,2.2,1.050*
2018-09-12 03:37:00,-2.873E-01,4C000000*,-703.4,965.001,90,22.3,44.6,0.408,742.0,2.2,1.050*
2018-09-12 03:38:00,-2.025E-01,4C000000*,-703.0,965.809,90,22.3,44.8,0.408,742.0,2.2,1.050*
2018-09-12 03:39:00,-3.379E-01,4C000000*,-703.0,964.597,90,22.3,44.9,0.408,742.0,2.2,1.050*
2018-09-12 03:40:00,-3.293E-01,4C000000*,-703.0,965.405,91,22.4,45.0,0.408,742.0,2.2,1.050*
2018-09-12 03:41:00,-2.207E-01,4C000000*,-703.4,966.214,91,22.3,44.8,0.408,742.0,2.2,1.050*
2018-09-12 03:42:00,-2.399E-01,4C000000*,-703.0,965.405,88,22.4,44.9,0.408,742.0,2.2,1.050*
2018-09-12 03:43:00,-3.185E-01,4C000000*,-703.0,965.001,90,22.3,45.1,0.408,742.0,2.2,1.050*
2018-09-12 03:44:00,-3.037E-01,4C000000*,-703.4,965.001,88,22.3,44.8,0.408,742.0,2.2,1.050*
2018-09-12 03:45:00,-3.165E-01,4C000000*,-703.4,964.597,90,22.3,44.8,0.408,742.0,2.2,1.050*
2018-09-12 03:46:00,-2.307E-01,4C000000*,-703.0,966.214,90,22.4,45.0,0.408,742.0,2.2,1.050*
2018-09-12 03:47:00,-2.371E-01,4C000000*,-703.0,965.405,90,22.4,44.8,0.408,742.0,2.2,1.050*
2018-09-12 03:48:00,-3.335E-01,4C000000*,-703.0,965.809,90,22.4,44.8,0.409,742.0,2.2,1.050*
2018-09-12 03:49:00,-2.891E-01,4C000000*,-703.0,965.809,89,22.4,44.9,0.408,742.0,2.2,1.050*
2018-09-12 03:50:00,-3.489E-01,4C000000*,-703.0,965.405,89,22.4,45.0,0.409,741.7,2.2,1.050*
2018-09-12 03:51:00,-2.478E-01,4C000000*,-703.0,964.192,91,22.4,44.7,0.408,742.0,2.2,1.050*
2018-09-12 03:52:00,-2.469E-01,4C000000*,-703.0,965.001,90,22.4,44.8,0.408,742.0,2.2,1.050*
2018-09-12 03:53:00,-2.070E-01,4C000000*,-703.0,964.597,89,22.4,45.0,0.408,742.0,2.2,1.050*
2018-09-12 03:54:00,-2.409E-01,4C000000*,-703.0,964.192,90,22.4,45.1,0.409,742.0,2.2,1.050*
2018-09-12 03:55:00,-3.009E-01,4C000000*,-703.4,965.001,90,22.4,44.8,0.408,742.0,2.2,1.050*
2018-09-12 03:56:00,-2.790E-01,4C000000*,-703.4,963.788,90,22.4,44.9,0.409,742.0,2.2,1.050*
2018-09-12 03:57:00,-2.438E-01,4C000000*,-703.0,967.022,89,22.4,45.0,0.408,742.0,2.2,1.050*
2018-09-12 03:58:00,-1.924E-01,4C000000*,-703.0,963.788,90,22.4,44.8,0.409,741.7,2.2,1.050*
2018-09-12 03:59:00,-3.112E-01,4C000000*,-703.4,965.809,90,22.5,44.8,0.408,742.0,2.2,1.050*
2018-09-12 04:00:00,-3.173E-01,4C000000*,-703.0,965.809,90,22.4,44.9,0.408,742.0,2.2,1.050*
2018-09-12 04:01:00,-3.284E-01,4C000000*,-702.6,964.597,89,22.3,45.1,0.408,742.0,2.2,1.050*
2018-09-12 04:02:00,-3.281E-01,4C000000*,-703.0,964.192,90,22.3,44.7,0.408,742.0,2.2,1.050*
2018-09-12 04:03:00,-3.183E-01,4C000000*,-703.0,965.001,90,22.4,44.8,0.409,742.0,2.2,1.050*
2018-09-12 04:04:00,-3.231E-01,4C000000*,-703.4,964.597,89,22.5,44.9,0.409,742.0,2.2,1.050*
2018-09-12 04:05:00,-2.283E-01,4C000000*,-702.3,964.192,90,22.4,45.1,0.408,742.0,2.2,1.050*
2018-09-12 04:06:00,-2.235E-01,4C000000*,-703.4,965.809,89,22.4,44.8,0.408,742.0,2.2,1.050*
2018-09-12 04:07:00,-2.279E-01,4C000000*,-702.6,966.214,90,22.4,45.0,0.409,742.3,2.2,1.050*
2018-09-12 04:08:00,-2.945E-01,4C000000*,-702.6,964.597,90,22.5,45.0,0.408,742.0,2.2,1.050*
2018-09-12 04:09:00,-2.070E-01,4C000000*,-702.6,964.597,91,22.4,44.7,0.408,742.0,2.2,1.050*
2018-09-12 04:10:00,-3.633E-01,4C000000*,-702.6,965.405,89,22.5,44.9,0.409,742.0,2.2,1.050*
2018-09-12 04:11:00,-3.143E-01,4C000000*,-703.0,965.001,91,22.5,45.0,0.409,742.0,2.2,1.050*
2018-09-12 04:12:00,-3.543E-01,4C000000*,-703.7,965.001,90,22.4,44.8,0.408,741.7,2.2,1.050*
2018-09-12 04:13:00,-2.567E-01,4C000000*,-703.0,966.618,92,22.5,44.8,0.408,742.0,2.2,1.050*
2018-09-12 04:14:00,-2.703E-01,4C000000*,-703.0,964.597,90,22.4,45.0,0.408,742.0,2.2,1.050*